Regional Weather Roundup
Issued by NWS

Home | Current Version | Previous Version | Graphics & Text | Print | Product List | Glossary On
Versions: 1 2 3 4 5 6 7 8 9 10 11 12 13 14 15 16 17 18 19 20 21 22 23 24 25 26 27 28 29 30 31 32 33 34 35 36 37 38 39 40 41 42 43 44 45 46 47 48 49 50
000
ASUS45 KPSR 160410
RWRAZ

ARIZONA HOURLY REGIONAL WEATHER ROUNDUP
NATIONAL WEATHER SERVICE PHOENIX AZ
900 PM MST TUE AUG 15 2017

NOTE: FAIR INDICATES FEW OR NO CLOUDS BELOW 12,000 FEET WITH NO
SIGNIFICANT WEATHER AND/OR OBSTRUCTIONS TO VISIBILITY.

AZZ001>003-036-160500-
NORTHWEST ARIZONA

CITY           SKY/WX    TMP DP  RH WIND       PRES   REMARKS
BULLHEAD CITY  CLEAR     95  36  12 S5        29.69R
KINGMAN        CLEAR     72  41  32 SE9       29.91R
$$

AZZ004>008-015-016-018-160500-
NORTH CENTRAL ARIZONA

CITY           SKY/WX    TMP DP  RH WIND       PRES   REMARKS
GRAND CANYON   CLEAR     49  30  48 NE3       30.15R
WILLIAMS       CLEAR     54  32  43 S6        30.16R
PRESCOTT       CLEAR     63  37  38 S5        30.05R
FLAGSTAFF      CLEAR     51  41  68 CALM      30.19R
PAYSON           N/A     72  37  28 W6        30.08R
PAGE           CLEAR     77  23  13 S6        29.94R
$$

AZZ009>014-017-160500-
NORTHEAST ARIZONA

CITY           SKY/WX    TMP DP  RH WIND       PRES   REMARKS
WINSLOW        PTCLDY    64  42  44 SW8       30.05R
SAINT JOHNS    MOCLDY    70  41  34 SW9       30.09R
WINDOW ROCK    PTCLDY    64  39  39 CALM      30.16R
SHOW LOW       PTCLDY    61  41  48 S6        30.17R
$$

AZZ540-542>544-546-548-160500-
GREATER PHOENIX AREA

CITY           SKY/WX    TMP DP  RH WIND       PRES   REMARKS
PHOENIX        CLEAR     93  37  14 SW6       29.74R
BUCKEYE        CLEAR     86  23  10 W6        29.75R
LUKE AFB       CLEAR     88  45  22 W6        29.74R
DEER VALLEY    CLEAR     88  27  11 NW5       29.77R
SCOTTSDALE     CLEAR     93  30  10 N5        29.79R
MESA-GATEWAY   PTCLDY    90  45  20 N6        29.78R
CHANDLER       CLEAR     93  37  14 W6        29.76
$$

AZZ539-553-160500-
SOUTHWEST MARICOPA COUNTY AND PINAL COUNTY

CITY           SKY/WX    TMP DP  RH WIND       PRES   REMARKS
CASA GRANDE    CLEAR     90  47  22 SW7       29.80R
GILA BEND      CLEAR     86  11   6 SW6       29.73R
$$

AZZ503-504-507>509-160500-
SOUTHEAST ARIZONA

CITY           SKY/WX    TMP DP  RH WIND       PRES   REMARKS
TUCSON         NOT AVBL
DAVIS-MONTHAN  CLEAR     83  45  25 SW3       29.90R
NOGALES        CLEAR     74  55  51 SE3       30.02R
SIERRA VISTA   CLEAR     75  52  43 S7        30.07R
DOUGLAS        CLEAR     71  58  63 S5        30.03R
SAFFORD        CLEAR     80  53  39 NW6       29.90R
$$

AZZ532-160500-
SOUTHWEST ARIZONA

CITY           SKY/WX    TMP DP  RH WIND       PRES   REMARKS
YUMA           NOT AVBL
$$

CAZ041-043-047-048-061-525>527-560>570-160500-
SOUTHERN CALIFORNIA

CITY           SKY/WX    TMP DP  RH WIND       PRES   REMARKS
DOWNTOWN L.A.  CLOUDY    69  60  73 W5        29.90R
L.A. AIRPORT   MOCLDY    67  61  81 W7        29.90R
SAN DIEGO      MOCLDY    67  56  67 W7        29.94R
BURBANK        CLEAR     67  58  72 S7        29.90R
ONTARIO        PTCLDY    66  57  72 SW12      29.90R
RIVERSIDE      CLEAR     65  58  78 W9        29.90R
PALM SPRINGS   CLEAR     87  52  29 NW22G30   29.71R
EL CENTRO NAS  CLEAR     85  45  24 W23       29.72R
IMPERIAL       CLEAR     85  50  29 W21G30    29.70R
BLYTHE         CLEAR     91  42  18 SW12      29.70R
NEEDLES        CLEAR     96  40  14 S8        29.70R
$$

NVZ020-UTZ003-160500-
SOUTHERN NEVADA-UTAH

CITY           SKY/WX    TMP DP  RH WIND       PRES   REMARKS
LAS VEGAS      CLEAR     91  32  12 SE8       29.77R
SALT LAKE CITY CLEAR     72  37  28 SE5       29.97R
$$

NMZ009-TXZ055-160500-
NEW MEXICO-WEST TEXAS

CITY           SKY/WX    TMP DP  RH WIND       PRES   REMARKS
ALBUQUERQUE    CLOUDY    76  34  21 N10       30.05R
EL PASO        PTCLDY    83  58  42 W15       29.97R
$$


........................KEY........................
SKY/WX - SKY CONDITION/WEATHER
TMP    - TEMPERATURE IN FAHRENHEIT
DP     - DEW POINT IN FAHRENHEIT
RH     - RELATIVE HUMIDITY IN PERCENT
WIND   - DIRECTION AND SPEED IN MILES PER HOUR (MPH)
VRB    - VARIABLE WIND DIRECTION
PRES   - MEAN SEA LEVEL PRESSURE IN INCHES OF MERCURY
         F - FALLING PRESSURE   R - RISING PRESSURE
         S - STEADY PRESSURE
VSB    - VISIBILITY IN MILES
HX     - HEAT INDEX IN FAHRENHEIT
WCI    - WIND CHILL INDEX IN FAHRENHEIT
TC     - TEMPERATURE IN CELSIUS WHICH IS ALSO KNOWN AS
         TEMPERATURE IN CENTIGRADE
AFB    - AIR FORCE BASE
         LUKE AFB IS LUKE AIR FORCE BASE
         DAVIS-MONTHAN IS DAVIS-MONTHAN AIR FORCE BASE
NAS    - NAVAL AIR STATION
         EL CENTRO NAS IS EL CENTRO NAVAL AIR STATION
N/A    - NOT AVAILABLE




USA.gov is the U.S. government's official web portal to all federal, state and local government web resources and services.